Time,TemperatureF,DewpointF,PressureIn,WindDirection,WindDirectionDegrees,WindSpeedMPH,WindSpeedGustMPH,Humidity,HourlyPrecipIn,Conditions,Clouds,dailyrainin,SolarRadiationWatts/m^2,SoftwareType,DateUTC
2013-10-13 00:02:00,34.0,26.0,-100.00,SE,126,1.0,5.0,73,0.00,,,0.00,0.000000,,2013-10-13 06:02:00,
2013-10-13 00:12:00,34.0,26.0,-100.00,SE,126,1.0,5.0,73,0.00,,,0.00,0.000000,,2013-10-13 06:12:00,
2013-10-13 00:42:00,33.0,25.0,-100.00,ESE,103,4.0,5.0,73,0.00,,,0.00,0.000000,,2013-10-13 06:42:00,
2013-10-13 00:52:00,33.0,25.0,-100.00,ESE,103,4.0,5.0,73,0.00,,,0.00,0.000000,,2013-10-13 06:52:00,
2013-10-13 01:02:00,33.0,25.0,-100.00,ESE,103,4.0,5.0,73,0.00,,,0.00,0.000000,,2013-10-13 07:02:00,
2013-10-13 01:11:00,33.0,25.0,-100.00,ESE,103,4.0,5.0,73,0.00,,,0.00,0.000000,,2013-10-13 07:11:00,
2013-10-13 01:42:00,29.0,24.0,-100.00,SSE,147,2.0,5.0,80,0.00,,,0.00,0.000000,,2013-10-13 07:42:00,
2013-10-13 01:52:00,29.0,24.0,-100.00,SSE,147,2.0,5.0,80,0.00,,,0.00,0.000000,,2013-10-13 07:52:00,
2013-10-13 02:02:00,29.0,24.0,-100.00,SSE,147,2.0,5.0,80,0.00,,,0.00,0.000000,,2013-10-13 08:02:00,
2013-10-13 02:12:00,29.0,24.0,-100.00,SSE,147,2.0,5.0,80,0.00,,,0.00,0.000000,,2013-10-13 08:12:00,
2013-10-13 02:42:00,29.0,24.0,-100.00,ESE,103,3.0,5.0,81,0.00,,,0.00,0.000000,,2013-10-13 08:42:00,
2013-10-13 02:52:00,29.0,24.0,-100.00,ESE,103,3.0,5.0,81,0.00,,,0.00,0.000000,,2013-10-13 08:52:00,
2013-10-13 03:02:00,29.0,24.0,-100.00,ESE,103,3.0,5.0,81,0.00,,,0.00,0.000000,,2013-10-13 09:02:00,
2013-10-13 03:11:00,29.0,24.0,-100.00,ESE,103,3.0,5.0,81,0.00,,,0.00,0.000000,,2013-10-13 09:11:00,
2013-10-13 03:43:00,27.0,23.0,-100.00,SE,127,3.0,5.0,86,0.00,,,0.00,0.000000,,2013-10-13 09:43:00,
2013-10-13 03:53:00,27.0,23.0,-100.00,SE,127,3.0,5.0,86,0.00,,,0.00,0.000000,,2013-10-13 09:53:00,
2013-10-13 04:03:00,27.0,23.0,-100.00,SE,127,3.0,5.0,86,0.00,,,0.00,0.000000,,2013-10-13 10:03:00,
2013-10-13 04:13:00,27.0,23.0,-100.00,SE,127,3.0,5.0,86,0.00,,,0.00,0.000000,,2013-10-13 10:13:00,
2013-10-13 05:12:00,24.0,20.0,-100.00,East,91,0.0,6.0,85,0.00,,,0.00,0.000000,,2013-10-13 11:12:00,
2013-10-13 05:42:00,24.0,22.0,-100.00,ESE,113,2.0,4.0,90,0.00,,,0.00,0.000000,,2013-10-13 11:42:00,
2013-10-13 05:52:00,24.0,22.0,-100.00,ESE,113,2.0,4.0,90,0.00,,,0.00,0.000000,,2013-10-13 11:52:00,
2013-10-13 06:01:00,24.0,22.0,-100.00,ESE,113,2.0,4.0,90,0.00,,,0.00,0.000000,,2013-10-13 12:01:00,
2013-10-13 06:12:00,24.0,22.0,-100.00,ESE,113,2.0,4.0,90,0.00,,,0.00,0.000000,,2013-10-13 12:12:00,
2013-10-13 06:42:00,23.0,21.0,-100.00,NE,48,1.0,4.0,90,0.00,,,0.00,0.000000,,2013-10-13 12:42:00,
2013-10-13 06:52:00,23.0,21.0,-100.00,NE,48,1.0,4.0,90,0.00,,,0.00,0.000000,,2013-10-13 12:52:00,
2013-10-13 07:02:00,23.0,21.0,-100.00,NE,48,1.0,4.0,90,0.00,,,0.00,0.000000,,2013-10-13 13:02:00,
2013-10-13 07:12:00,23.0,21.0,-100.00,NE,48,1.0,4.0,90,0.00,,,0.00,0.000000,,2013-10-13 13:12:00,
2013-10-13 07:52:00,21.0,18.0,-100.00,North,0,0.0,4.0,88,0.00,,,0.00,0.000000,,2013-10-13 13:52:00,
2013-10-13 08:02:00,21.0,18.0,-100.00,North,0,0.0,4.0,88,0.00,,,0.00,0.000000,,2013-10-13 14:02:00,
2013-10-13 08:42:00,21.0,18.0,-100.00,SE,144,2.0,4.0,88,0.00,,,0.00,4.000000,,2013-10-13 14:42:00,
2013-10-13 08:52:00,21.0,18.0,-100.00,SE,144,2.0,4.0,88,0.00,,,0.00,4.000000,,2013-10-13 14:52:00,
2013-10-13 09:01:00,21.0,18.0,-100.00,SE,144,2.0,4.0,88,0.00,,,0.00,4.000000,,2013-10-13 15:01:00,
2013-10-13 09:12:00,21.0,18.0,-100.00,SE,144,2.0,4.0,88,0.00,,,0.00,4.000000,,2013-10-13 15:12:00,
2013-10-13 09:43:00,26.0,24.0,-100.00,South,191,1.0,3.0,93,-99.99,,,0.00,80.000000,,2013-10-13 15:43:00,
2013-10-13 09:54:00,26.0,24.0,-100.00,South,191,1.0,3.0,93,-99.99,,,0.00,80.000000,,2013-10-13 15:54:00,
2013-10-13 10:03:00,26.0,24.0,-100.00,South,191,1.0,3.0,93,-99.99,,,0.00,80.000000,,2013-10-13 16:03:00,
2013-10-13 10:12:00,26.0,24.0,-100.00,South,191,1.0,3.0,93,-99.99,,,0.00,80.000000,,2013-10-13 16:12:00,
2013-10-13 10:43:00,32.0,29.0,-100.00,SE,132,2.0,4.0,87,0.00,,,0.00,243.000000,,2013-10-13 16:43:00,
2013-10-13 10:54:00,32.0,29.0,-100.00,SE,132,2.0,4.0,87,0.00,,,0.00,243.000000,,2013-10-13 16:54:00,
2013-10-13 11:03:00,32.0,29.0,-100.00,SE,132,2.0,4.0,87,0.00,,,0.00,243.000000,,2013-10-13 17:03:00,
2013-10-13 11:12:00,32.0,29.0,-100.00,SE,132,2.0,4.0,87,0.00,,,0.00,243.000000,,2013-10-13 17:12:00,
2013-10-13 11:43:00,38.0,30.0,-100.00,SW,225,2.0,5.0,73,0.00,,,0.00,476.000000,,2013-10-13 17:43:00,
2013-10-13 11:52:00,38.0,30.0,-100.00,SW,225,2.0,5.0,73,0.00,,,0.00,476.000000,,2013-10-13 17:52:00,
2013-10-13 12:02:00,38.0,30.0,-100.00,SW,225,2.0,5.0,73,0.00,,,0.00,476.000000,,2013-10-13 18:02:00,
2013-10-13 12:12:00,38.0,30.0,-100.00,SW,225,2.0,5.0,73,0.00,,,0.00,476.000000,,2013-10-13 18:12:00,
2013-10-13 12:42:00,42.0,31.0,-100.00,NNW,327,4.0,9.0,64,0.00,,,0.00,616.000000,,2013-10-13 18:42:00,
2013-10-13 12:52:00,42.0,31.0,-100.00,NNW,327,4.0,9.0,64,0.00,,,0.00,616.000000,,2013-10-13 18:52:00,
2013-10-13 13:01:00,42.0,31.0,-100.00,NNW,327,4.0,9.0,64,0.00,,,0.00,616.000000,,2013-10-13 19:01:00,
2013-10-13 13:11:00,42.0,31.0,-100.00,NNW,327,4.0,9.0,64,0.00,,,0.00,616.000000,,2013-10-13 19:11:00,
2013-10-13 13:42:00,43.0,30.0,-100.00,NW,321,5.0,9.0,61,0.00,,,0.00,438.000000,,2013-10-13 19:42:00,
2013-10-13 13:52:00,43.0,30.0,-100.00,NW,321,5.0,9.0,61,0.00,,,0.00,438.000000,,2013-10-13 19:52:00,
2013-10-13 14:01:00,43.0,30.0,-100.00,NW,321,5.0,9.0,61,0.00,,,0.00,438.000000,,2013-10-13 20:01:00,
2013-10-13 14:11:00,43.0,30.0,-100.00,NW,321,5.0,9.0,61,0.00,,,0.00,438.000000,,2013-10-13 20:11:00,
2013-10-13 14:43:00,48.0,33.0,-100.00,NNW,335,7.0,15.0,56,0.00,,,0.00,512.000000,,2013-10-13 20:43:00,
2013-10-13 14:52:00,48.0,33.0,-100.00,NNW,335,7.0,15.0,56,0.00,,,0.00,512.000000,,2013-10-13 20:52:00,
2013-10-13 15:02:00,48.0,33.0,-100.00,NNW,335,7.0,15.0,56,0.00,,,0.00,512.000000,,2013-10-13 21:02:00,
2013-10-13 15:11:00,48.0,33.0,-100.00,NNW,335,7.0,15.0,56,0.00,,,0.00,512.000000,,2013-10-13 21:11:00,
2013-10-13 15:44:00,47.0,31.0,-100.00,NNW,339,9.0,14.0,54,0.00,,,0.00,633.000000,,2013-10-13 21:44:00,
2013-10-13 15:55:00,47.0,31.0,-100.00,NNW,339,9.0,14.0,54,0.00,,,0.00,633.000000,,2013-10-13 21:55:00,
2013-10-13 16:03:00,47.0,31.0,-100.00,NNW,339,9.0,14.0,54,0.00,,,0.00,633.000000,,2013-10-13 22:03:00,
2013-10-13 16:13:00,47.0,31.0,-100.00,NNW,339,9.0,14.0,54,0.00,,,0.00,633.000000,,2013-10-13 22:13:00,
2013-10-13 16:43:00,47.0,30.0,-100.00,NNW,335,7.0,14.0,52,0.00,,,0.00,341.000000,,2013-10-13 22:43:00,
2013-10-13 16:53:00,47.0,30.0,-100.00,NNW,335,7.0,14.0,52,0.00,,,0.00,341.000000,,2013-10-13 22:53:00,
2013-10-13 17:02:00,47.0,30.0,-100.00,NNW,335,7.0,14.0,52,0.00,,,0.00,341.000000,,2013-10-13 23:02:00,
2013-10-13 17:12:00,47.0,30.0,-100.00,NNW,335,7.0,14.0,52,0.00,,,0.00,341.000000,,2013-10-13 23:12:00,
2013-10-13 17:42:00,45.0,29.0,-100.00,NNW,338,7.0,11.0,54,0.00,,,0.00,164.000000,,2013-10-13 23:42:00,
2013-10-13 17:52:00,45.0,29.0,-100.00,NNW,338,7.0,11.0,54,0.00,,,0.00,164.000000,,2013-10-13 23:52:00,
2013-10-13 18:01:00,45.0,29.0,-100.00,NNW,338,7.0,11.0,54,0.00,,,0.00,164.000000,,2013-10-14 00:01:00,
2013-10-13 18:12:00,45.0,29.0,-100.00,NNW,338,7.0,11.0,54,0.00,,,0.00,164.000000,,2013-10-14 00:12:00,
2013-10-13 18:42:00,44.0,28.0,-100.00,NNW,344,4.0,11.0,54,0.00,,,0.00,62.000000,,2013-10-14 00:42:00,
2013-10-13 18:52:00,44.0,28.0,-100.00,NNW,344,4.0,11.0,54,0.00,,,0.00,62.000000,,2013-10-14 00:52:00,
2013-10-13 19:02:00,44.0,28.0,-100.00,NNW,344,4.0,11.0,54,0.00,,,0.00,62.000000,,2013-10-14 01:02:00,
2013-10-13 19:11:00,44.0,28.0,-100.00,NNW,344,4.0,11.0,54,0.00,,,0.00,62.000000,,2013-10-14 01:11:00,
2013-10-13 19:42:00,43.0,29.0,-100.00,North,7,4.0,7.0,57,0.00,,,0.00,7.000000,,2013-10-14 01:42:00,
2013-10-13 19:52:00,43.0,29.0,-100.00,North,7,4.0,7.0,57,0.00,,,0.00,7.000000,,2013-10-14 01:52:00,
2013-10-13 20:02:00,43.0,29.0,-100.00,North,7,4.0,7.0,57,0.00,,,0.00,7.000000,,2013-10-14 02:02:00,
2013-10-13 20:11:00,43.0,29.0,-100.00,North,7,4.0,7.0,57,0.00,,,0.00,7.000000,,2013-10-14 02:11:00,
2013-10-13 20:42:00,40.0,29.0,-100.00,NNE,17,4.0,7.0,64,0.00,,,0.00,0.000000,,2013-10-14 02:42:00,
2013-10-13 20:52:00,40.0,29.0,-100.00,NNE,17,4.0,7.0,64,0.00,,,0.00,0.000000,,2013-10-14 02:52:00,
2013-10-13 21:02:00,40.0,29.0,-100.00,NNE,17,4.0,7.0,64,0.00,,,0.00,0.000000,,2013-10-14 03:02:00,
2013-10-13 21:12:00,40.0,29.0,-100.00,NNE,17,4.0,7.0,64,0.00,,,0.00,0.000000,,2013-10-14 03:12:00,
2013-10-13 21:44:00,39.0,30.0,-100.00,North,8,3.0,6.0,70,0.00,,,0.00,0.000000,,2013-10-14 03:44:00,
2013-10-13 21:55:00,39.0,30.0,-100.00,North,8,3.0,6.0,70,0.00,,,0.00,0.000000,,2013-10-14 03:55:00,
2013-10-13 22:04:00,39.0,30.0,-100.00,North,8,3.0,6.0,70,0.00,,,0.00,0.000000,,2013-10-14 04:04:00,
2013-10-13 22:14:00,39.0,30.0,-100.00,North,8,3.0,6.0,70,0.00,,,0.00,0.000000,,2013-10-14 04:14:00,
2013-10-13 22:44:00,40.0,30.0,-100.00,North,1,5.0,11.0,66,0.00,,,0.00,0.000000,,2013-10-14 04:44:00,
2013-10-13 22:54:00,40.0,30.0,-100.00,North,1,5.0,11.0,66,0.00,,,0.00,0.000000,,2013-10-14 04:54:00,
2013-10-13 23:03:00,40.0,30.0,-100.00,North,1,5.0,11.0,66,0.00,,,0.00,0.000000,,2013-10-14 05:03:00,
2013-10-13 23:12:00,40.0,30.0,-100.00,North,1,5.0,11.0,66,0.00,,,0.00,0.000000,,2013-10-14 05:12:00,
2013-10-13 23:43:00,38.0,29.0,-100.00,North,351,4.0,9.0,70,0.00,,,0.00,0.000000,,2013-10-14 05:43:00,
2013-10-13 23:52:00,38.0,29.0,-100.00,North,351,4.0,9.0,70,0.00,,,0.00,0.000000,,2013-10-14 05:52:00,